This is the latest recevied weather packets stored in our database for station/object KE4EST. If no packets are shown the sender has not sent any weather packets the latest 10 day(s).
| Time | Temp. | Humidity | Pressure | Rain* | Wind** | Luminosity | Snow |
|---|---|---|---|---|---|---|---|
| 1777587694 | 16.67° C | 50% | 1012.6 hPa | 0 mm | - | 77 W/m² | - |
| 1777587389 | 16.67° C | 50% | 1012.5 hPa | 0 mm | - | 69 W/m² | - |
| 1777587085 | 17.22° C | 49% | 1012.7 hPa | 0 mm | - | 71 W/m² | - |
| 1777586781 | 17.22° C | 49% | 1012.4 hPa | 0 mm | - | 90 W/m² | - |
| 1777586477 | 17.22° C | 48% | 1012.8 hPa | 0 mm | - | 194 W/m² | - |
| 1777586172 | 17.22° C | 51% | 1012.6 hPa | 0 mm | - | 136 W/m² | - |
| 1777585870 | 17.22° C | 50% | 1012.6 hPa | 0 mm | - | 105 W/m² | - |
| 1777585565 | 17.22° C | 49% | 1012.4 hPa | 0 mm | - | 133 W/m² | - |
| 1777585261 | 17.22° C | 50% | 1012.4 hPa | 0 mm | - | 115 W/m² | - |
| 1777584955 | 17.22° C | 49% | 1012.4 hPa | 0 mm | - | 115 W/m² | - |
| 1777584653 | 17.22° C | 50% | 1012.4 hPa | 0 mm | - | 123 W/m² | - |
| 1777584350 | 17.22° C | 48% | 1012.5 hPa | 0 mm | - | 117 W/m² | - |
| 1777584046 | 17.78° C | 48% | 1012.5 hPa | 0 mm | - | 121 W/m² | - |
| 1777583746 | 17.78° C | 48% | 1012.5 hPa | 0 mm | - | 128 W/m² | - |
| 1777583444 | 17.78° C | 48% | 1012.3 hPa | 0 mm | - | 121 W/m² | - |
| 1777583139 | 17.78° C | 49% | 1012.5 hPa | 0 mm | - | 133 W/m² | - |
| 1777582835 | 17.78° C | 49% | 1012.5 hPa | 0 mm | - | 149 W/m² | - |
| 1777582532 | 17.78° C | 49% | 1012.4 hPa | 0 mm | - | 203 W/m² | - |
| 1777582227 | 17.78° C | 51% | 1012.5 hPa | 0 mm | - | 180 W/m² | - |
| 1777581925 | 17.78° C | 52% | 1012.6 hPa | 0 mm | - | 155 W/m² | - |
| 1777581615 | 18.33° C | 49% | 1012.3 hPa | 0 mm | - | 205 W/m² | - |
| 1777581308 | 18.33° C | 49% | 1012.5 hPa | 0 mm | - | 238 W/m² | - |
| 1777580998 | 17.78° C | 50% | 1012.5 hPa | 0 mm | - | 222 W/m² | - |
| 1777580698 | 18.33° C | 50% | 1012.7 hPa | 0 mm | - | 215 W/m² | - |
| 1777580394 | 18.33° C | 50% | 1012.7 hPa | 0 mm | - | 296 W/m² | - |
* Rain latest hour (hover to see other rain measurements)
** Current wind speed in m/s (hover to see current wind gust speed)